Home   Weather   Zwettl   Past weeks

Flag for Austria Past Weather in Zwettl, Lower Austria, Austria — Yesterday and Last 2 Weeks

Now
35 °F

Partly sunny.


Feels Like: 35 °F
Forecast: 23 / 41 °F
Wind: 1 mph from South

Location: Retz

Current Time: Dec 7, 2016 at 1:42:19 pm

Latest Report: Dec 7, 2016 at 1:00 pm


Visibility: 5 mi

Pressure: 30.65 "Hg (28.72 "Hg at 524m altitude)

Humidity: 77%

Dew Point: 28 °F

Location of ZwettlLocation

Past Weather in Zwettl — Graph

°F

Zwettl Temperature Yesterday

Maximum temperature yesterday: 31 °F (at 2:00 pm)
Minimum temperature yesterday: 23 °F (at 5:00 am)
Average temperature yesterday: 28 °F

High & Low Weather Summary for the Past Weeks

 TemperatureHumidityPressure
High57 °F (Nov 22, 2:00 pm)100% (Nov 24, 6:00 am)30.70 "Hg (Nov 24, 6:00 am)
Low23 °F (Dec 6, 5:00 am)44% (Nov 30, 8:00 pm)29.76 "Hg (Dec 2, 7:00 am)
Average36 °F85%30.25 "Hg
* Reported Nov 22 12:00 pm — Dec 7 12:00 pm, Zwettl, Weather by CustomWeather, © 2016

Note: Actual official high and low records may vary slightly from our data, if they occured in-between our weather recording intervals... More about our weather records

Advertising

Zwettl Weather History for the Previous 24 Hours

Scroll right to see more
 ConditionsComfort  
Time TempWeatherWind HumidityBarometerVisibility
12:00 pm
Wed, Dec 7
34 °FChilly.2 mph80%30.67 "HgN/A
11:00 am33 °FChilly.2 mph83%30.69 "HgN/A
10:00 am32 °FChilly.No wind85%30.70 "HgN/A
9:00 am30 °FChilly.1 mph90%30.69 "HgN/A
8:00 am31 °FChilly.No wind88%30.67 "HgN/A
7:00 am30 °FOvercast.1 mph88%30.66 "Hg3 mi
6:00 am31 °FChilly.2 mph87%30.66 "HgN/A
5:00 am31 °FChilly.2 mph85%30.65 "HgN/A
4:00 am31 °FChilly.2 mph86%30.64 "HgN/A
3:00 am31 °FChilly.2 mph85%30.63 "HgN/A
1:00 am30 °FChilly.1 mph85%30.62 "HgN/A
12:00 am31 °FChilly.5 mph82%30.61 "HgN/A
11:00 pm
Tue, Dec 6
31 °FChilly.5 mph81%30.57 "HgN/A
10:00 pm31 °FChilly.9 mph81%30.56 "HgN/A
9:00 pm31 °FChilly.9 mph81%30.56 "HgN/A
8:00 pm31 °FChilly.9 mph82%30.55 "HgN/A
6:00 pm29 °FChilly.9 mph84%30.53 "HgN/A
5:00 pm29 °FChilly.8 mph83%30.51 "HgN/A
4:00 pm30 °FChilly.9 mph80%30.48 "HgN/A
3:00 pm31 °FChilly.9 mph76%30.47 "HgN/A
2:00 pm31 °FChilly.7 mph76%30.48 "HgN/A
1:00 pm30 °FScattered clouds.5 mph77%30.50 "Hg4 mi
Weather by CustomWeather, © 2016

See weather overviewHow to use our weather pages